Location: Colonial Woods South
(40.1818°N, 76.8289°W)
Time: 03:33:16
(UTC+00:00)

Hubble Space Telescope - Pass Details

Date: 29 April 2026
Orbit: 473 x 476 km, 28.5° (Epoch: 11 May)

Event Time Altitude Azimuth Distance (km) Brightness Sun altitude
Rises 01:22:26 0° 244° (WSW) 2,507 4.6 -14.9°
Reaches altitude 10° 01:25:45 10° 213° (SSW) 1,630 3.2 -15.4°
Maximum altitude 01:27:18 12° 188° (S) 1,499 2.8 -15.7°
Enters shadow 01:27:23 12° 187° (S) 1,500 2.8 -15.7°
